CAPE
0 0 0 0 0 0 0 0 0 0 0 0 0 0 0 0 0 0 0 0 0 0 0 1 0 0 0 0 0 0 0 0 0 0 0 0 0 0 0 0 0 0 0 0
0 0 0 0 0 0 0 0 0 0 0 0 0 0 0 0 0 0 0 0 0 0 0 0 0 0 0 0 0 0 0 0 0 0 0 0 0 0 0 0 0 0 0 0
0 0 0 0 0 0 0 0 0 0 0 0 0 0 0 0 0 0 0 0 0 0 0 0 0 0 0 0 0 0 0 0 0 0 0 0 0 2 0 0 0 0 0 0
0 0 0 0 0 0 0 0 0 0 0 0 0 0 0 0 0 0 0 0 0 0 0 0 0 0 0 0 0 0 0 1 0 0 0 0 0 0 1 1 0 0 0 0
0 0 0 0 0 0 0 0 0 0 0 0 0 0 0 0 0 0 0 0 0 0 0 0 0 0 0 0 0 0 0 0 0 0 0 0 0 0 0 4 0 0 2 0
0 0 0 0 0 0 0 0 0 0 0 0 0 0 0 0 0 0 0 0 0 0 0 0 0 0 0 0 1 0 0 0 0 0 0 0 1 0 0 5 0 0 0 0
0 0 0 0 0 0 0 0 0 0 0 0 0 0 0 0 0 0 0 0 0 0 0 0 0 0 0 1 1 0 0 0 0 0 0 1 1 0 7 4 1 3 0 0
0 0 0 0 0 0 0 0 0 0 0 0 0 0 0 0 0 0 0 0 0 0 0 0 0 0 1 2 1 0 1 0 0 0 6 1 0 1 7 5 4 0 7 1
0 0 0 0 0 0 0 0 0 0 0 0 0 0 0 0 0 0 0 0 0 0 0 0 0 0 0 1 0 0 0 0 0 1 0 0 9 0 0 3 1 0 3 0
0 0 0 0 0 0 0 0 0 0 0 0 0 0 0 0 0 0 0 0 0 0 0 0 0 0 0 2 0 0 0 4 0 0 0 20 2 0 0 0 0 0 2 3
0 0 0 0 0 0 0 0 0 0 0 0 0 0 0 0 0 0 0 0 0 0 0 0 0 0 0 0 2 0 0 0 0 0 0 0 0 0 0 0 0 0 0 2
0 0 0 0 0 0 0 0 0 0 0 0 0 0 0 0 0 0 0 0 0 0 0 0 0 0 0 0 2 1 0 0 0 0 0 0 0 0 0 0 0 0 0 4
0 0 0 0 0 0 0 0 0 0 0 0 0 0 0 0 0 0 0 0 0 0 0 0 0 0 0 0 2 4 1 4 0 0 0 4 5 0 0 0 0 0 0 11
0 0 0 0 0 0 0 0 0 0 0 0 0 0 0 0 0 0 0 0 0 0 0 0 0 0 0 0 1 2 3 2 0 0 1 0 0 2 0 0 0 0 0 0
0 0 0 0 0 0 0 0 0 0 0 0 0 0 0 0 0 0 0 0 0 0 0 0 0 0 0 0 1 1 3 3 1 0 0 1 0 0 0 0 0 0 0 0
0 0 0 0 0 0 0 0 0 0 0 0 0 0 0 0 0 0 0 0 0 0 0 0 0 0 0 0 1 2 2 4 4 2 0 0 0 0 0 0 0 0 0 0
0 0 0 0 0 0 0 0 0 0 0 0 0 0 0 0 0 0 0 0 0 0 0 0 0 0 0 0 0 2 3 4 5 4 2 0 0 0 0 0 0 0 0 0
0 0 0 0 0 0 0 0 0 0 0 0 0 0 0 0 0 0 0 0 0 0 0 0 0 0 0 0 0 1 1 1 1 2 3 2 0 0 0 0 0 0 0 1
0 0 0 0 0 0 0 0 0 0 0 0 0 0 0 0 0 0 0 0 0 0 0 0 0 0 0 0 0 1 1 1 1 1 3 3 1 1 0 0 0 0 0 0
0 0 0 0 0 0 0 0 0 0 0 0 0 0 0 0 0 0 0 0 0 0 0 0 0 0 0 0 0 2 0 0 1 1 2 1 2 1 1 1 0 1 1 1
0 0 0 0 0 0 0 0 0 0 0 0 0 0 0 0 0 0 0 0 0 0 0 0 0 0 0 0 0 0 2 1 0 0 0 0 0 1 2 1 1 0 0 0
0 0 0 0 0 0 0 0 0 0 0 0 0 0 0 0 0 0 0 0 0 0 0 0 0 1 0 0 0 0 0 0 1 0 0 0 0 0 1 0 1 0 0 0
0 0 0 0 0 0 0 0 0 0 0 0 0 0 0 0 0 0 0 0 0 0 0 0 2 1 0 0 0 0 0 0 1 0 0 0 0 0 0 0 0 0 1 1
0 0 0 0 0 0 0 0 0 0 0 0 0 0 0 0 0 0 0 0 0 0 0 0 1 0 0 0 0 0 0 0 0 0 0 0 0 0 0 0 0 0 0 1
0 0 0 0 0 0 0 0 0 0 0 0 0 0 0 0 0 0 0 0 0 0 0 0 0 0 0 0 0 0 0 0 0 0 0 0 0 0 0 0 0 0 0 0
0 0 0 0 0 0 0 0 0 0 0 0 0 0 0 0 0 0 0 0 0 0 0 0 0 0 0 0 0 0 0 0 0 0 0 0 0 0 0 0 0 0 0 0
0 0 0 0 0 0 0 0 0 0 0 0 0 0 0 0 0 0 0 0 0 0 0 0 0 0 0 0 0 0 0 0 1 0 0 0 0 0 0 0 0 0 0 0
CIN
0 0 0 0 0 0 0 0 0 0 0 0 0 0 0 0 0 0 0 0 0 0 0 -1 -1 0 0 0 0 0 0 -1 0 0 0 0 0 0 0 0 0 0 0 0
0 0 0 0 0 0 0 0 0 0 0 0 0 0 0 0 0 0 0 0 0 0 0 0 0 0 0 -1 0 0 0 0 -1 0 0 0 0 -1 0 0 0 0 0 0
0 0 0 0 0 0 0 0 0 0 0 0 0 0 0 0 0 0 0 0 0 0 0 0 -1 0 0 0 0 0 0 0 0 0 0 0 0 -1 0 0 0 0 0 0
0 0 0 0 0 0 0 0 0 0 0 0 0 0 0 0 0 0 0 0 0 0 0 0 0 0 0 0 0 0 0 0 0 0 0 0 0 0 -1 -1 0 0 0 0
0 0 0 0 0 0 0 0 0 0 0 0 0 0 0 0 0 0 0 0 0 0 0 0 0 0 0 0 0 0 0 0 0 0 0 0 0 0 0 -1 0 0 0 0
0 0 0 0 0 0 0 0 0 0 0 0 0 0 0 0 0 0 0 0 0 0 0 0 0 0 0 0 0 0 0 0 0 0 0 0 0 0 0 0 0 0 0 0
0 0 0 0 0 0 0 0 0 0 0 0 0 0 0 0 0 0 0 0 0 0 0 0 0 0 0 0 0 0 0 -2 -1 -1 -1 -1 -1 0 -1 0 0 0 0 0
0 0 0 0 0 0 0 0 0 0 0 0 0 0 0 0 0 0 0 0 0 0 0 0 0 0 0 0 0 0 -4 -1 -2 -1 0 -1 0 -1 -1 -1 0 0 0 0
0 0 0 0 0 0 0 0 0 0 0 0 0 0 0 0 0 0 0 0 0 0 0 0 0 0 0 0 0 0 0 0 0 -1 0 0 -1 0 0 -1 -1 0 0 0
0 0 0 0 0 0 0 0 0 0 0 0 0 0 0 0 0 0 0 0 0 0 0 0 0 0 0 0 0 0 0 -1 0 0 0 -1 -7 0 0 0 0 0 0 0
0 0 0 0 0 0 0 0 0 0 0 0 0 0 0 0 0 0 0 0 0 0 0 0 0 0 0 0 0 0 0 0 0 0 -2 0 0 0 0 0 0 0 0 0
0 0 0 0 0 0 0 0 0 0 0 0 0 0 0 0 0 0 0 0 0 0 0 0 0 0 0 0 0 0 0 0 0 0 0 0 0 0 0 0 0 0 0 -1
0 0 0 0 0 0 0 0 0 0 0 0 0 0 0 0 0 0 0 0 0 0 0 0 0 0 0 0 0 0 0 -12 0 -3 -9 -6 -3 0 0 0 0 0 0 -6
0 0 0 0 0 0 0 0 0 0 0 0 0 0 0 0 0 0 0 0 0 0 0 0 0 0 0 0 0 0 0 0 0 -3 -2 0 0 -2 0 0 0 0 0 -5
0 0 0 0 0 0 0 0 0 0 0 0 0 0 0 0 0 0 0 0 0 0 0 0 0 0 0 0 0 0 0 0 0 0 0 -4 0 0 0 0 0 0 0 0
0 0 0 0 0 0 0 0 0 0 0 0 0 0 0 0 0 0 0 0 0 0 0 0 0 0 0 0 0 0 0 0 0 0 0 0 0 0 0 0 0 0 0 0
0 0 0 0 0 0 0 0 0 0 0 0 0 0 0 0 0 0 0 0 0 0 0 0 0 0 0 0 0 0 0 0 0 0 0 0 0 0 0 0 0 0 0 0
0 0 0 0 0 0 0 0 0 0 0 0 0 0 0 0 0 0 0 0 0 0 0 0 -1 -1 0 0 0 0 0 0 0 0 0 0 0 0 0 0 0 0 0 0
0 0 0 0 0 0 0 0 0 0 0 0 0 0 0 0 0 0 0 0 0 0 0 0 0 -1 0 0 0 0 0 0 0 0 0 0 0 0 0 0 0 0 0 0
0 0 0 0 0 0 0 0 0 0 0 0 0 0 0 0 0 0 0 0 0 0 0 0 0 0 0 0 0 0 0 0 0 0 0 0 0 0 0 0 0 0 0 0
0 0 0 0 0 0 0 0 0 0 0 0 0 0 0 0 0 0 0 0 0 0 0 0 0 -2 0 0 0 0 0 0 0 0 0 0 0 0 0 0 0 0 0 0
0 0 0 0 0 0 0 0 0 0 0 0 0 0 0 0 0 0 0 0 0 -2 0 0 0 -2 0 0 0 0 0 0 0 0 0 0 0 0 0 0 0 0 0 0
0 0 0 0 0 0 0 0 0 0 0 0 0 0 0 0 0 0 0 0 0 -1 0 0 -1 0 0 0 0 0 0 0 0 0 0 0 0 0 0 0 0 0 0 0
0 0 0 0 0 0 0 0 0 0 0 0 0 0 0 0 0 0 0 0 0 0 0 0 -1 0 0 0 0 0 0 0 0 0 0 0 0 0 0 0 0 0 0 0
0 0 0 0 0 0 0 0 0 0 0 0 0 0 0 0 0 0 0 0 0 0 0 0 0 0 0 0 0 0 0 0 0 0 0 0 0 0 0 0 0 0 0 0
0 0 0 0 0 0 0 0 0 0 0 0 0 0 0 0 0 0 0 0 0 0 0 0 0 0 0 0 0 0 0 0 0 0 0 0 0 0 0 0 0 0 0 0
0 0 0 0 0 0 0 0 0 0 0 0 0 0 0 0 0 0 0 0 0 0 0 0 0 0 0 0 0 0 0 0 0 0 0 0 0 0 0 0 0 0 0 0
Wind_Speed
27 26 26 27 25 23 24 26 36 42 39 40 42 45 46 48 46 44 42 45 48 49 46 41 39 34 26 19 23 43 44 44 44 45 49 50 52 53 53 55 55 56 55 56
38 30 31 30 25 23 22 24 29 33 40 34 36 43 46 48 47 46 45 46 49 49 44 41 39 35 24 17 20 39 42 43 42 44 47 50 51 52 54 55 55 55 56 57
38 36 37 37 32 27 29 28 30 39 37 36 42 46 48 48 45 47 47 48 50 49 43 40 39 31 23 18 18 32 41 42 42 42 44 48 50 51 54 57 54 56 57 57
37 41 45 35 27 28 29 31 23 29 33 35 39 42 43 40 46 48 48 48 49 48 41 39 36 29 22 17 18 25 38 39 40 40 42 44 49 51 52 54 54 56 58 57
35 41 34 32 31 35 38 42 25 30 34 37 39 42 42 43 47 46 47 46 46 43 39 38 34 29 23 15 17 26 30 32 36 39 41 43 47 49 50 52 52 56 56 55
32 38 42 34 30 28 32 42 30 31 36 40 43 53 49 52 48 46 45 46 45 44 38 39 34 28 23 12 20 22 19 24 32 35 38 39 43 47 49 50 51 53 56 56
28 32 31 25 28 27 43 42 35 30 33 37 41 37 41 43 44 44 44 45 45 42 39 40 36 31 23 8 15 17 16 21 27 31 32 34 39 46 49 50 50 52 54 54
27 32 39 25 28 33 31 32 31 30 32 34 33 36 40 43 45 47 47 47 45 43 39 39 37 33 26 8 7 13 16 19 23 24 25 31 39 45 48 49 50 53 52 53
21 29 32 22 25 23 25 28 29 29 30 31 34 37 40 43 45 46 45 44 44 43 39 39 37 33 27 9 21 7 14 18 21 20 23 34 38 44 47 49 50 53 53 52
31 31 27 25 21 19 21 24 25 25 29 30 33 36 39 42 43 45 45 44 43 43 41 35 34 29 26 16 12 6 13 16 18 21 26 32 36 43 46 47 49 51 49 49
31 30 28 23 20 19 19 21 23 25 27 30 31 35 39 41 42 43 44 43 41 40 42 38 33 31 25 14 11 18 12 14 18 22 26 32 37 42 47 44 45 48 48 44
32 28 28 28 22 18 19 22 23 25 29 29 30 33 37 39 40 41 43 42 40 37 41 39 34 31 23 15 8 8 21 19 21 23 28 33 37 41 43 42 43 45 41 40
28 25 24 23 19 18 19 21 22 23 24 28 29 32 36 38 40 40 41 41 40 35 35 36 33 35 22 11 10 7 10 19 25 26 31 35 36 42 45 43 41 43 43 37
23 24 25 20 21 15 18 20 21 22 24 26 28 31 35 37 39 41 42 40 37 34 31 27 39 33 21 13 5 6 8 12 22 25 29 36 38 38 43 45 45 45 39 37
24 18 20 20 16 16 18 19 20 22 25 29 28 32 35 39 40 40 39 39 38 36 45 35 33 34 17 13 9 4 6 8 17 25 27 34 37 37 38 43 43 42 39 33
25 19 17 16 15 16 16 16 20 22 26 27 29 34 35 36 36 37 39 40 41 42 50 46 38 37 24 16 10 6 7 6 11 17 23 28 33 37 38 40 41 41 41 39
22 21 18 16 13 13 13 15 18 21 25 26 28 31 33 36 38 41 41 40 37 38 47 44 39 40 39 25 19 9 4 4 7 12 16 22 27 34 38 41 41 39 38 36
18 18 15 13 10 9 10 14 17 20 24 25 28 31 34 36 38 39 40 39 39 40 48 44 39 38 36 31 20 10 3 2 4 9 13 16 20 25 29 35 36 36 35 33
16 16 12 10 7 8 11 14 16 19 23 25 28 31 32 34 36 36 38 40 43 43 49 45 39 36 35 30 27 18 14 10 7 6 8 10 13 16 25 29 28 30 29 28
13 10 9 8 7 8 11 14 16 20 23 24 27 29 32 34 36 37 37 37 39 37 42 46 40 36 34 31 28 26 19 15 13 10 10 11 13 13 19 18 20 22 23 24
9 8 7 5 5 9 11 13 15 20 22 24 26 28 29 31 34 36 38 38 39 38 42 44 42 38 33 31 28 25 22 18 17 14 13 12 15 17 15 17 17 19 21 21
8 8 5 3 5 8 10 12 15 18 21 23 24 26 29 31 32 33 31 35 34 38 40 40 41 39 35 31 27 25 23 21 19 17 16 15 15 16 16 17 19 19 19 18
9 7 5 5 6 7 9 12 14 17 20 21 23 25 28 30 32 36 36 35 34 36 38 37 42 40 36 31 28 25 23 22 21 19 18 17 16 17 18 19 20 20 21 18
9 9 8 8 7 7 9 11 13 16 18 20 21 23 26 29 30 31 30 32 34 35 37 38 41 41 37 32 29 26 24 23 22 22 20 20 18 18 17 17 18 18 19 19
10 8 5 5 6 8 9 10 12 15 17 19 21 23 25 26 28 30 31 31 33 33 35 37 39 40 39 34 30 27 25 23 23 22 22 21 21 20 19 19 19 18 17 17
8 7 5 5 7 7 7 9 11 13 15 17 20 22 24 25 27 29 30 31 31 32 34 35 35 36 38 36 32 28 26 24 24 23 22 21 22 22 21 20 20 19 19 18
9 6 5 6 7 6 6 8 9 12 14 16 19 21 23 25 27 28 29 30 30 30 32 33 34 34 36 37 34 30 27 25 23 22 22 21 21 21 21 20 19 19 17 17
Wind_Direction
348 339 344 344 350 357 354 354 355 354 351 343 345 347 347 348 347 346 344 345 344 344 343 342 341 338 329 292 265 289 274 262 256 246 239 234 230 227 225 224 223 222 221 218
354 3 1 354 353 353 347 345 336 333 336 336 346 351 349 350 350 349 346 345 345 345 344 344 343 341 330 301 268 267 266 257 251 242 235 229 226 223 222 221 220 220 219 218
355 358 356 3 7 5 4 359 355 353 349 355 351 351 352 352 353 351 348 346 347 347 346 346 345 342 331 302 276 257 260 253 244 236 230 225 221 219 218 217 217 218 217 217
348 356 358 1 7 4 355 351 349 348 347 349 348 350 350 355 355 352 350 348 349 351 349 349 346 343 332 304 278 253 256 249 237 230 226 221 217 216 214 214 215 214 214 215
352 349 345 3 7 3 359 355 7 358 355 354 352 353 1 4 358 354 352 351 352 353 352 352 351 349 345 319 280 273 245 241 228 222 217 214 213 212 212 212 212 212 212 214
350 348 350 356 1 5 5 358 8 360 357 356 359 360 1 359 358 357 356 356 356 357 359 1 358 356 354 324 282 297 267 235 219 215 214 214 212 210 209 209 210 211 212 214
341 343 344 350 357 6 358 356 358 358 357 358 360 358 352 356 359 359 359 359 1 3 6 7 8 7 8 342 271 289 242 218 210 210 212 214 211 208 207 207 208 209 211 211
348 345 346 357 358 353 351 352 355 358 358 358 357 355 359 360 1 2 3 3 5 9 11 12 16 20 25 31 238 267 225 213 210 211 216 213 206 204 205 205 207 207 210 211
332 333 337 338 336 343 348 350 355 358 360 360 359 360 1 3 4 5 6 7 9 12 14 18 21 27 33 10 74 272 232 220 212 214 214 202 205 202 202 204 206 205 207 211
330 332 327 332 331 334 345 350 356 359 0 2 1 1 3 5 6 7 9 10 12 15 19 22 23 28 37 55 101 16 241 225 214 211 210 207 203 201 201 203 205 204 208 210
316 316 321 327 331 334 344 354 358 0 2 2 3 3 5 5 7 9 11 12 15 17 21 23 26 32 40 59 96 127 223 218 218 215 214 205 203 201 201 205 203 202 206 215
314 324 327 334 343 350 350 353 357 360 1 4 6 5 6 7 8 10 12 14 16 19 23 25 30 36 43 55 102 216 174 214 220 221 209 204 202 201 201 202 203 206 218 222
311 323 325 332 338 343 347 352 357 1 3 4 7 7 8 8 10 11 14 16 18 19 23 26 32 38 44 47 90 151 240 214 205 210 203 201 200 198 197 201 204 215 221 210
308 317 317 319 329 337 347 351 357 1 4 5 8 9 9 10 11 13 15 16 18 20 24 24 33 40 40 47 78 140 188 215 203 201 199 200 199 198 202 202 210 210 214 212
305 296 312 328 333 336 343 349 353 358 1 4 9 9 10 9 11 13 15 18 20 22 16 346 358 32 24 34 64 114 177 212 207 204 205 202 204 207 205 203 208 209 208 209
309 302 304 304 313 326 337 346 349 356 359 4 8 7 9 9 12 14 16 19 20 21 5 349 343 345 348 355 14 90 139 202 204 210 210 207 204 205 205 207 207 209 210 214
308 308 304 300 303 319 330 344 349 355 357 4 7 7 8 8 11 13 16 18 21 22 9 347 342 347 350 343 346 332 298 210 226 201 204 206 209 208 209 208 209 212 216 221
299 311 309 310 305 319 335 343 350 354 356 3 5 6 7 8 10 12 14 17 19 21 3 346 340 345 346 343 339 342 340 309 199 198 199 203 209 208 209 211 213 218 221 225
294 304 312 321 323 332 342 344 349 352 356 360 3 4 7 8 11 13 14 17 17 17 4 346 336 338 341 337 337 329 332 324 308 279 221 217 211 214 213 216 223 223 222 223
294 304 311 321 332 336 339 343 348 351 354 360 3 4 6 8 10 12 15 19 19 19 12 354 339 338 334 334 333 335 324 324 320 288 279 266 236 241 224 225 225 226 229 235
281 293 299 306 319 330 337 344 349 348 354 0 4 5 8 10 11 13 16 19 19 18 12 6 351 339 334 329 328 328 324 315 318 308 287 273 250 247 252 243 244 245 242 244
272 280 281 287 309 323 333 343 347 351 357 2 8 8 8 9 12 15 22 20 21 18 16 14 2 342 336 330 323 320 317 313 313 303 300 292 272 254 260 255 251 250 249 251
273 260 254 272 295 321 335 341 348 355 1 6 9 8 7 8 12 12 16 20 22 21 19 18 359 345 339 333 326 317 311 308 302 299 293 286 279 271 263 256 251 251 244 244
258 251 263 283 301 317 327 340 350 360 6 8 10 10 10 9 13 17 20 21 21 22 21 18 9 353 344 334 328 319 310 304 298 294 288 287 280 271 268 273 261 259 249 247
242 243 254 274 293 309 328 348 355 2 7 9 11 8 11 14 14 15 20 23 24 24 22 20 16 9 356 341 330 322 313 303 299 295 291 285 281 283 280 279 270 269 269 266
232 239 257 283 300 313 332 351 357 4 9 11 10 8 11 14 14 17 21 23 26 26 24 22 21 19 10 350 336 327 318 307 300 295 292 289 283 277 275 273 271 269 266 262
257 263 276 293 300 311 331 349 2 9 11 12 9 9 10 13 14 16 21 23 26 27 26 24 23 23 17 1 345 334 325 317 305 297 293 290 285 280 277 276 275 273 269 264